Regional Weather Roundup
Issued by NWS

Home | Current Version | Previous Version | Text Only | Print | Product List | Glossary On
Versions: 1 2 3 4 5 6 7 8 9 10 11 12 13 14 15 16 17 18 19 20 21 22 23 24 25 26 27 28 29 30 31 32 33 34 35 36 37 38 39 40 41 42 43 44 45 46 47 48 49 50
000
ASUS43 KMKX 281500
RWRWI

WISCONSIN REGIONAL WEATHER ROUNDUP
NATIONAL WEATHER SERVICE MILWAUKEE/SULLIVAN WI
1000 AM CDT THU AUG 28 2014

NOTE: "FAIR" INDICATES FEW OR NO CLOUDS BELOW 12,000 FEET WITH NO
SIGNIFICANT WEATHER AND/OR OBSTRUCTIONS TO VISIBILITY.

WIZ001-002-006>008-014>016-023>028-281600-
NORTHWEST WISCONSIN

CITY           SKY/WX    TMP DP  RH WIND       PRES   REMARKS
SUPERIOR ARPT  SUNNY     61  54  77 CALM      30.12S
ASHLAND        SUNNY     64  52  64 S3        30.14S
HAYWARD        SUNNY     64  49  57 SE7       30.14S
SIREN          CLOUDY    63  52  66 SE5       30.11S
RICE LAKE      PTSUNNY   62  51  67 SE8       30.14S
LADYSMITH      SUNNY     65  52  62 E7        30.15F
EAU CLAIRE     NOT AVBL
MENOMONIE      PTSUNNY   62  54  74 SE6       30.12S
NEW RICHMOND   PTSUNNY   64  54  70 SE6       30.11S
OSCEOLA        PTSUNNY   64  55  72 SE7       30.13S
$$

WIZ003>005-009-010-017-018-281600-
NORTH CENTRAL WISCONSIN

CITY           SKY/WX    TMP DP  RH WIND       PRES   REMARKS
WOODRUFF       SUNNY     64  50  62 SE5       30.16R
RHINELANDER    SUNNY     63  48  58 E8        30.18R
EAGLE RIVER    SUNNY     62  50  64 SE5       30.16S
LAND O LAKES   SUNNY     63  49  60 S5        30.17F
PHILLIPS       PTSUNNY   64  50  60 SE7       30.15S
TOMAHAWK       SUNNY     62  50  63 E3        30.17R
MEDFORD        SUNNY     63  53  70 E5        30.15S
MERRILL        MOSUNNY   57  53  87 SE9       30.17R
$$

WIZ029-030-035-036-043>047-281600-
CENTRAL WISCONSIN

CITY           SKY/WX    TMP DP  RH WIND       PRES   REMARKS
WAUSAU         CLOUDY    58  57  97 SE9       30.15F
MOSINEE        FOG       57  57 100 SE5       30.17S VSB 1/2
MARSHFIELD     CLOUDY    59  57  93 SE7       30.15R FOG
STEVENS POINT  CLOUDY    58  57  96 SE5       30.16S
WAUPACA        CLOUDY    67  61  79 SE7       30.16S
WAUTOMA        HVY RAIN  68  61  77 S9        30.15S
WISC RAPIDS    CLOUDY    61  60  97 VRB3      30.16R
CAMP DOUGLAS   NOT AVBL
$$

WIZ011>013-019>022-031-037>040-048>050-281600-
NORTHEAST WISCONSIN

CITY           SKY/WX    TMP DP  RH WIND       PRES   REMARKS
ANTIGO         CLOUDY    58  56  94 SE7       30.18S
STURGEON BAY   CLOUDY    63  54  72 SE6       30.18S
GREEN BAY      CLOUDY    66  58  75 SE5       30.17R
MANITOWOC      NOT AVBL
APPLETON       PTSUNNY   66  55  68 S9        30.16S
CLINTONVILLE   CLOUDY    63  59  88 CALM      30.16S
OSHKOSH        CLOUDY    67  59  75 S9        30.15S
$$

WIZ032>034-041-042-053>061-281600-
SOUTHWEST WISCONSIN

CITY           SKY/WX    TMP DP  RH WIND       PRES   REMARKS
LA CROSSE      PTSUNNY   71  60  68 S8        30.11S
SPARTA         PTSUNNY   69  59  69 S3        30.13S
VIROQUA        FAIR      67  62  82 SE9       30.13F
BOSCOBEL       MOSUNNY   73  60  63 VRB3      30.12S
PRAIRIE DU CHI CLOUDY    67  59  75 E6        30.10F
PLATTEVILLE    FAIR      69  62  79 E10       30.12F
$$

WIZ056-057-062-063-064-067-068-281600-
SOUTH CENTRAL WISCONSIN

CITY           SKY/WX    TMP DP  RH WIND       PRES   REMARKS
BARABOO/DELLS  MOSUNNY   69  58  68 S10       30.14S
LONE ROCK      NOT AVBL
WATERTOWN      SUNNY     68  59  72 SE6       30.14S
MADISON        MOSUNNY   70  57  63 SE13      30.14S
MIDDLETON      FAIR      70  58  63 SE10      30.14S
MONROE         SUNNY     68  61  77 SE10      30.13S
JANESVILLE     SUNNY     72  57  60 SE12      30.13S
$$

WIZ051-052-058>065-066-070>072-281600-
SOUTHEAST WISCONSIN

CITY           SKY/WX    TMP DP  RH WIND       PRES   REMARKS
MILWAUKEE      MOSUNNY   69  56  62 SE14      30.15S
WAUKESHA       SUNNY     66  55  68 E12       30.16S
MILWAUKEE/TIMM SUNNY     68  52  56 SE10      30.16F
RACINE         SUNNY     70  54  56 E13       30.17S
BURLINGTON     SUNNY     66  55  67 E10G17    30.14F
KENOSHA        SUNNY     69  55  60 E12       30.15F
FOND DU LAC    PTSUNNY   67  57  70 S8        30.15S
SHEBOYGAN      PTSUNNY   67  56  67 S8        30.17R
WEST BEND      MOSUNNY   68  54  60 SE8       30.16S
JUNEAU         SUNNY     66  58  75 SE9       30.15F
$$

LSZ147-162-281600-
LAKE SUPERIOR

STATION/POSITION TIME  TEMP    WIND        PRES    WAVE
                       AIR SEA DIR/SP/G            HT/PER
                 (UTC) (F)     (DEG/KT/KT) (MB)    (FT/S)
W MID LAKE BUOY  1350   57 56  160/  6/  6 1020.3F   0
DEVILS ISLAND    1400   61     230/  6/  7 1020.4R
PORT WING        1400   60     310/  2/  3 1020.3S
SAXON HARBOR     1400   64      CALM  /  2 1020.7R
$$

LMZ867-665-643>646-281600-
LAKE MICHIGAN

STATION/POSITION TIME  TEMP    WIND        PRES    WAVE
                       AIR SEA DIR/SP/G            HT/PER
                 (UTC) (F)     (DEG/KT/KT) (MB)    (FT/S)
N MID LAKE BUOY  1350   62 65  100/  6/  8 1022.1F   0
NORTHPORT PIER   1400   63     140/  8/ 10 1021.7S
SISTER BAY       1311   65        CALM       N/A
ALGOMA LAKESHORE 1353          190/ 12/ 14   N/A
KEWAUNEE LAKESHO 1400   63     150/  8/ 12 1020.4F
SHEBOYGAN LAKESH 1400   65 68  140/ 12/ 13 1021.6R
ATWATER BUOY     1400   67     130/ 14/ 16 1022.1F
MILWAUKEE LAKESH 1400   66     120/ 12/ 14   N/A
S MID LAKE BUOY  1350   65 69  110/ 12/ 14 1021.1S   2/ 4
KENOSHA   LAKESH 1400   68     120/ 13/ 16 1020.7S
$$

TC  - TEMPERATURE IN CELSIUS
VSB - VISIBILITY IN STATUTE MILES
WCI - WIND CHILL INDEX
HX  - HEAT INDEX



USA.gov is the U.S. government's official web portal to all federal, state and local government web resources and services.